DLH9YP EDDM-LIRF

Flight info

Callsign DLH9YP
Flight time 1h 12m
Altitude 37000
Route TURBU6E/08R TURBU Y107 TOBSO DCT BAKOR DCT VESAL DCT LAMPO DCT ROKIB DCT VIC DCT KOPER DCT SUKOM DCT BAGNO DCT GAVRA DCT RITEB
Aircraft A321/M-SDE2E3FGIJ1LORWXYZ/HB1

Departure

Time 2026-05-01 12:08
Airport Munich Airport (EDDM)

Arrival

Time 2026-05-01 13:20
Airport Rome–Fiumicino Leonardo da Vinci International Airport (LIRF)
Time Latitude Longitude Altitude Speed Heading
2026-05-01 10:43 48.35237 11.79356 1486 ft 0 kts 263°
2026-05-01 10:45 48.35064 11.79372 1475 ft 0 kts 263°
2026-05-01 10:45 48.35133 11.79365 1479 ft 0 kts 263°
2026-05-01 11:49 48.35136 11.79393 1475 ft 4 kts 263°
2026-05-01 11:49 48.35139 11.79433 1476 ft 4 kts 263°
2026-05-01 11:50 48.35142 11.79465 1475 ft 4 kts 251°
2026-05-01 11:50 48.35154 11.79495 1479 ft 4 kts 208°
2026-05-01 11:50 48.35176 11.79502 1478 ft 4 kts 173°
2026-05-01 11:50 48.35196 11.79499 1476 ft 0 kts 173°
2026-05-01 11:55 48.35193 11.79499 1485 ft 2 kts 173°
2026-05-01 11:55 48.35138 11.79509 1482 ft 11 kts 173°
2026-05-01 11:55 48.35074 11.79520 1480 ft 9 kts 173°
2026-05-01 11:55 48.35016 11.79531 1474 ft 0 kts 173°
2026-05-01 11:56 48.35012 11.79531 1479 ft 0 kts 173°
2026-05-01 11:58 48.34985 11.79536 1477 ft 7 kts 173°
2026-05-01 11:59 48.34919 11.79548 1473 ft 11 kts 173°
2026-05-01 11:59 48.34836 11.79559 1485 ft 13 kts 184°
2026-05-01 11:59 48.34784 11.79457 1480 ft 14 kts 261°
2026-05-01 12:00 48.34758 11.79129 1485 ft 17 kts 264°
2026-05-01 12:00 48.34744 11.78939 1485 ft 19 kts 263°
2026-05-01 12:00 48.34711 11.78511 1485 ft 22 kts 263°
2026-05-01 12:01 48.34693 11.78275 1477 ft 23 kts 263°
2026-05-01 12:01 48.34673 11.78023 1485 ft 25 kts 263°
2026-05-01 12:01 48.34652 11.77755 1475 ft 27 kts 263°
2026-05-01 12:01 48.34631 11.77471 1485 ft 28 kts 263°
2026-05-01 12:02 48.34608 11.77176 1476 ft 29 kts 263°
2026-05-01 12:02 48.34584 11.76869 1480 ft 30 kts 263°
2026-05-01 12:02 48.34560 11.76552 1485 ft 31 kts 263°
2026-05-01 12:02 48.34534 11.76225 1480 ft 32 kts 263°
2026-05-01 12:03 48.34510 11.75910 1476 ft 24 kts 263°
2026-05-01 12:03 48.34492 11.75670 1479 ft 19 kts 263°
2026-05-01 12:03 48.34478 11.75480 1477 ft 18 kts 263°
2026-05-01 12:03 48.34466 11.75325 1485 ft 14 kts 263°
2026-05-01 12:04 48.34434 11.75226 1480 ft 11 kts 207°
2026-05-01 12:04 48.34357 11.75226 1478 ft 12 kts 173°
2026-05-01 12:04 48.34319 11.75233 1479 ft 0 kts 173°
2026-05-01 12:04 48.34301 11.75236 1477 ft 7 kts 173°
2026-05-01 12:05 48.34245 11.75246 1476 ft 9 kts 173°
2026-05-01 12:05 48.34201 11.75254 1480 ft 1 kts 173°
2026-05-01 12:05 48.34179 11.75258 1483 ft 8 kts 173°
2026-05-01 12:06 48.34109 11.75295 1477 ft 12 kts 139°
2026-05-01 12:06 48.34090 11.75384 1485 ft 0 kts 83°
2026-05-01 12:07 48.34094 11.75432 1481 ft 25 kts 83°
2026-05-01 12:07 48.34145 11.76113 1486 ft 103 kts 83°
2026-05-01 12:07 48.34247 11.77506 1500 ft 161 kts 84°
2026-05-01 12:08 48.34379 11.79212 2120 ft 166 kts 83°
2026-05-01 12:08 48.34529 11.80982 2895 ft 176 kts 84°
2026-05-01 12:08 48.34683 11.82906 3406 ft 195 kts 83°
2026-05-01 12:08 48.34839 11.85058 3731 ft 219 kts 83°
2026-05-01 12:09 48.35008 11.87396 4564 ft 228 kts 86°
2026-05-01 12:09 48.35185 11.89785 5542 ft 232 kts 88°
2026-05-01 12:09 48.35369 11.92217 6432 ft 236 kts 85°
2026-05-01 12:09 48.35378 11.94700 7116 ft 241 kts 104°
2026-05-01 12:10 48.34515 11.96820 7363 ft 244 kts 137°
2026-05-01 12:10 48.32230 11.99435 8611 ft 250 kts 139°
2026-05-01 12:10 48.30840 12.01041 9449 ft 254 kts 142°
2026-05-01 12:11 48.27358 12.02722 10655 ft 288 kts 178°
2026-05-01 12:11 48.25320 12.02589 11223 ft 298 kts 180°
2026-05-01 12:11 48.23226 12.02446 11897 ft 304 kts 179°
2026-05-01 12:12 48.21091 12.02308 12622 ft 309 kts 180°
2026-05-01 12:12 48.18927 12.02174 13297 ft 314 kts 180°
2026-05-01 12:12 48.16730 12.02042 13993 ft 318 kts 180°
2026-05-01 12:12 48.14504 12.01910 14646 ft 322 kts 179°
2026-05-01 12:13 48.12251 12.01777 15320 ft 325 kts 179°
2026-05-01 12:13 48.09978 12.01642 15972 ft 328 kts 179°
2026-05-01 12:13 48.07687 12.01471 16630 ft 333 kts 183°
2026-05-01 12:13 48.05382 12.00792 17043 ft 347 kts 193°
2026-05-01 12:14 48.02981 11.99809 17183 ft 367 kts 193°
2026-05-01 12:14 48.00473 11.98750 17493 ft 380 kts 193°
2026-05-01 12:14 47.97915 11.97659 18029 ft 385 kts 193°
2026-05-01 12:14 47.95324 11.96546 18625 ft 389 kts 193°
2026-05-01 12:15 47.92704 11.95451 19136 ft 392 kts 191°
2026-05-01 12:15 47.90009 11.94852 19613 ft 392 kts 180°
2026-05-01 12:15 47.87269 11.94783 20113 ft 395 kts 178°
2026-05-01 12:15 47.84511 11.94739 20641 ft 399 kts 178°
2026-05-01 12:16 47.81726 11.94691 21144 ft 402 kts 178°
2026-05-01 12:16 47.78915 11.94639 21623 ft 406 kts 178°
2026-05-01 12:16 47.76075 11.94589 22109 ft 409 kts 178°
2026-05-01 12:16 47.73214 11.94537 22573 ft 413 kts 178°
2026-05-01 12:17 47.70330 11.94483 23044 ft 416 kts 178°
2026-05-01 12:17 47.67417 11.94431 23511 ft 420 kts 178°
2026-05-01 12:17 47.64482 11.94380 23985 ft 423 kts 178°
2026-05-01 12:17 47.61524 11.94329 24359 ft 426 kts 178°
2026-05-01 12:18 47.58546 11.94281 24741 ft 429 kts 178°
2026-05-01 12:18 47.55553 11.94232 25101 ft 432 kts 178°
2026-05-01 12:18 47.52533 11.94182 25500 ft 435 kts 178°
2026-05-01 12:18 47.49501 11.94130 25891 ft 437 kts 178°
2026-05-01 12:19 47.46454 11.94074 26292 ft 440 kts 178°
2026-05-01 12:19 47.43385 11.93985 26680 ft 443 kts 181°
2026-05-01 12:19 47.40344 11.93474 27068 ft 447 kts 186°
2026-05-01 12:19 47.37253 11.92852 27461 ft 450 kts 186°
2026-05-01 12:20 47.34147 11.92222 27847 ft 452 kts 186°
2026-05-01 12:20 47.31019 11.91590 28212 ft 455 kts 186°
2026-05-01 12:20 47.27873 11.90961 28563 ft 457 kts 186°
2026-05-01 12:20 47.24709 11.90333 28924 ft 460 kts 186°
2026-05-01 12:21 47.21531 11.89705 29292 ft 462 kts 186°
2026-05-01 12:21 47.18335 11.89073 29651 ft 465 kts 186°
2026-05-01 12:21 47.15119 11.88437 30008 ft 468 kts 186°
2026-05-01 12:21 47.11886 11.87796 30386 ft 470 kts 186°
2026-05-01 12:22 47.08634 11.87151 30701 ft 473 kts 186°
2026-05-01 12:22 47.05362 11.86503 30968 ft 476 kts 186°
2026-05-01 12:22 47.02077 11.85852 31273 ft 478 kts 186°
2026-05-01 12:22 46.98784 11.85078 31534 ft 481 kts 188°
2026-05-01 12:23 46.95495 11.84119 31811 ft 483 kts 190°
2026-05-01 12:23 46.92201 11.83028 32058 ft 486 kts 191°
2026-05-01 12:23 46.88909 11.81876 32345 ft 487 kts 192°
2026-05-01 12:23 46.85616 11.80723 32745 ft 486 kts 192°
2026-05-01 12:24 46.82328 11.79601 33096 ft 485 kts 191°
2026-05-01 12:24 46.79032 11.78521 33424 ft 485 kts 190°
2026-05-01 12:24 46.75744 11.77482 33775 ft 484 kts 189°
2026-05-01 12:24 46.72441 11.76461 34112 ft 484 kts 189°
2026-05-01 12:25 46.69146 11.75447 34417 ft 484 kts 189°
2026-05-01 12:25 46.62552 11.73412 34927 ft 484 kts 188°
2026-05-01 12:25 46.59231 11.72785 35221 ft 480 kts 180°
2026-05-01 12:26 46.55898 11.72584 35520 ft 479 kts 179°
2026-05-01 12:26 46.49250 11.72209 36120 ft 477 kts 180°
2026-05-01 12:26 46.45937 11.72023 36416 ft 476 kts 180°
2026-05-01 12:27 46.42625 11.71837 36708 ft 476 kts 180°
2026-05-01 12:27 46.36022 11.71467 37224 ft 474 kts 180°
2026-05-01 12:28 46.26163 11.70963 37319 ft 471 kts 180°
2026-05-01 12:29 46.16328 11.70449 37330 ft 471 kts 180°
2026-05-01 12:29 46.06489 11.69925 37347 ft 472 kts 180°
2026-05-01 12:30 45.96658 11.69387 37361 ft 473 kts 180°
2026-05-01 12:31 45.90075 11.69034 37368 ft 474 kts 180°
2026-05-01 12:31 45.83483 11.68689 37382 ft 475 kts 180°
2026-05-01 12:32 45.76884 11.68343 37382 ft 474 kts 180°
2026-05-01 12:32 45.66989 11.67802 37388 ft 475 kts 180°
2026-05-01 12:33 45.60388 11.67434 37388 ft 475 kts 181°
2026-05-01 12:33 45.53786 11.66959 37392 ft 475 kts 182°
2026-05-01 12:34 45.47175 11.66447 37394 ft 476 kts 182°
2026-05-01 12:34 45.40561 11.65948 37396 ft 476 kts 181°
2026-05-01 12:35 45.33934 11.65472 37391 ft 477 kts 181°
2026-05-01 12:35 45.27311 11.65000 37391 ft 477 kts 181°
2026-05-01 12:36 45.20680 11.64530 37389 ft 477 kts 182°
2026-05-01 12:36 45.14045 11.64104 37389 ft 477 kts 180°
2026-05-01 12:37 45.07402 11.64251 37387 ft 477 kts 176°
2026-05-01 12:37 45.00770 11.64747 37377 ft 477 kts 175°
2026-05-01 12:38 44.94135 11.65199 37374 ft 478 kts 176°
2026-05-01 12:38 44.87492 11.65517 37373 ft 478 kts 177°
2026-05-01 12:39 44.80843 11.65796 37374 ft 478 kts 177°
2026-05-01 12:39 44.74190 11.66085 37376 ft 478 kts 177°
2026-05-01 12:40 44.67536 11.66392 37377 ft 479 kts 177°
2026-05-01 12:40 44.60874 11.66710 37381 ft 479 kts 177°
2026-05-01 12:41 44.54263 11.67168 37382 ft 478 kts 170°
2026-05-01 12:41 44.47670 11.68493 37375 ft 479 kts 170°
2026-05-01 12:42 44.41077 11.69830 37375 ft 479 kts 170°
2026-05-01 12:42 44.34474 11.71163 37377 ft 480 kts 170°
2026-05-01 12:43 44.27865 11.72486 37380 ft 480 kts 170°
2026-05-01 12:43 44.21246 11.73811 37381 ft 481 kts 170°
2026-05-01 12:44 44.14592 11.75151 37034 ft 491 kts 170°
2026-05-01 12:44 44.07689 11.76533 36317 ft 507 kts 169°
2026-05-01 12:45 44.00699 11.77923 35617 ft 507 kts 169°
2026-05-01 12:45 43.97211 11.78616 35273 ft 505 kts 168°
2026-05-01 12:45 43.93736 11.79304 34920 ft 503 kts 168°
2026-05-01 12:46 43.90273 11.79986 34553 ft 502 kts 168°
2026-05-01 12:46 43.86824 11.80660 34176 ft 500 kts 168°
2026-05-01 12:46 43.83390 11.81329 33767 ft 497 kts 168°
2026-05-01 12:46 43.79970 11.81999 33354 ft 495 kts 167°
2026-05-01 12:47 43.76580 11.82703 32963 ft 491 kts 166°
2026-05-01 12:47 43.73238 11.83583 32562 ft 487 kts 163°
2026-05-01 12:47 43.69954 11.84621 32182 ft 482 kts 161°
2026-05-01 12:47 43.66713 11.85744 31804 ft 478 kts 160°
2026-05-01 12:48 43.63502 11.86883 31418 ft 475 kts 160°
2026-05-01 12:48 43.60302 11.87992 31149 ft 472 kts 160°
2026-05-01 12:48 43.57110 11.89059 30801 ft 471 kts 161°
2026-05-01 12:48 43.53924 11.90084 30442 ft 468 kts 161°
2026-05-01 12:49 43.50758 11.91078 30030 ft 465 kts 161°
2026-05-01 12:49 43.47609 11.92055 29600 ft 462 kts 161°
2026-05-01 12:49 43.44481 11.93024 29183 ft 460 kts 161°
2026-05-01 12:49 43.41409 11.93981 28778 ft 457 kts 161°
2026-05-01 12:50 43.38315 11.94956 28372 ft 455 kts 161°
2026-05-01 12:50 43.35239 11.95930 27976 ft 453 kts 161°
2026-05-01 12:50 43.32178 11.96900 27584 ft 450 kts 161°
2026-05-01 12:50 43.29134 11.97861 27177 ft 448 kts 161°
2026-05-01 12:51 43.26104 11.98814 26769 ft 446 kts 161°
2026-05-01 12:51 43.23090 11.99764 26364 ft 442 kts 161°
2026-05-01 12:51 43.17128 12.01646 25582 ft 437 kts 160°
2026-05-01 12:52 43.14171 12.02575 25198 ft 435 kts 160°
2026-05-01 12:52 43.08311 12.04406 24448 ft 430 kts 160°
2026-05-01 12:52 43.05402 12.05312 24078 ft 427 kts 160°
2026-05-01 12:53 42.99642 12.07104 23236 ft 422 kts 160°
2026-05-01 12:53 42.96791 12.07994 22804 ft 419 kts 160°
2026-05-01 12:53 42.93956 12.08881 22372 ft 416 kts 160°
2026-05-01 12:54 42.91142 12.09763 21947 ft 414 kts 160°
2026-05-01 12:54 42.85620 12.11479 21117 ft 400 kts 160°
2026-05-01 12:54 42.82930 12.12309 20703 ft 393 kts 160°
2026-05-01 12:55 42.77667 12.13912 19917 ft 383 kts 162°
2026-05-01 12:55 42.75046 12.14640 19106 ft 387 kts 163°
2026-05-01 12:55 42.72436 12.15316 18835 ft 375 kts 164°
2026-05-01 12:56 42.69914 12.15939 18752 ft 361 kts 164°
2026-05-01 12:56 42.67486 12.16541 18669 ft 348 kts 164°
2026-05-01 12:56 42.65154 12.17130 18597 ft 336 kts 163°
2026-05-01 12:56 42.62840 12.17730 18521 ft 340 kts 163°
2026-05-01 12:57 42.60515 12.18344 18448 ft 341 kts 163°
2026-05-01 12:57 42.56653 12.19367 18312 ft 340 kts 163°
2026-05-01 12:57 42.54334 12.19977 18228 ft 339 kts 164°
2026-05-01 12:58 42.52017 12.20580 18151 ft 339 kts 164°
2026-05-01 12:58 42.49639 12.21200 17999 ft 354 kts 165°
2026-05-01 12:58 42.47253 12.21818 17775 ft 344 kts 165°
2026-05-01 12:59 42.42659 12.22990 17354 ft 329 kts 165°
2026-05-01 12:59 42.40424 12.23563 17142 ft 326 kts 165°
2026-05-01 12:59 42.35995 12.24715 16464 ft 322 kts 165°
2026-05-01 13:00 42.31628 12.25849 15799 ft 317 kts 165°
2026-05-01 13:00 42.29468 12.26405 15467 ft 315 kts 166°
2026-05-01 13:01 42.25187 12.27505 14817 ft 311 kts 166°
2026-05-01 13:01 42.23068 12.28048 14500 ft 309 kts 166°
2026-05-01 13:01 42.18866 12.29129 13891 ft 305 kts 166°
2026-05-01 13:02 42.16788 12.29664 13544 ft 304 kts 166°
2026-05-01 13:07 41.76701 12.43432 6539 ft 264 kts 160°
2026-05-01 13:07 41.74971 12.44153 6417 ft 257 kts 161°
2026-05-01 13:07 41.73288 12.44854 6271 ft 249 kts 161°
2026-05-01 13:08 41.71644 12.45542 6131 ft 248 kts 161°
2026-05-01 13:08 41.69986 12.46236 5766 ft 251 kts 161°
2026-05-01 13:08 41.68228 12.46569 5405 ft 269 kts 185°
2026-05-01 13:08 41.66458 12.45744 5049 ft 274 kts 214°
2026-05-01 13:09 41.65175 12.43901 4693 ft 272 kts 243°
2026-05-01 13:09 41.64471 12.41556 4330 ft 271 kts 253°
2026-05-01 13:09 41.63895 12.39169 3974 ft 269 kts 253°
2026-05-01 13:09 41.63480 12.36746 3612 ft 266 kts 271°
2026-05-01 13:10 41.63962 12.34470 3432 ft 252 kts 308°
2026-05-01 13:10 41.65293 12.33122 3211 ft 238 kts 345°
2026-05-01 13:10 41.66898 12.33100 2929 ft 230 kts 11°
2026-05-01 13:10 41.68448 12.33528 2645 ft 225 kts 19°
2026-05-01 13:11 41.69887 12.34286 2403 ft 220 kts 23°
2026-05-01 13:11 41.71293 12.35025 2140 ft 218 kts 24°
2026-05-01 13:11 41.72457 12.36277 1947 ft 213 kts 54°
2026-05-01 13:11 41.73138 12.37986 2148 ft 209 kts 63°
2026-05-01 13:12 41.73816 12.39709 2376 ft 210 kts 60°
2026-05-01 13:12 41.74486 12.41456 2464 ft 209 kts 69°
2026-05-01 13:12 41.74566 12.43404 2499 ft 215 kts 102°
2026-05-01 13:12 41.73867 12.45156 2568 ft 216 kts 140°
2026-05-01 13:13 41.72551 12.45998 3294 ft 219 kts 162°
2026-05-01 13:13 41.71007 12.46706 2702 ft 245 kts 159°
2026-05-01 13:13 41.69359 12.47307 2524 ft 241 kts 171°
2026-05-01 13:13 41.67764 12.47052 2508 ft 227 kts 205°
2026-05-01 13:14 41.66623 12.45767 2516 ft 213 kts 239°
2026-05-01 13:14 41.66068 12.44033 2519 ft 193 kts 253°
2026-05-01 13:14 41.65962 12.42322 2530 ft 183 kts 279°
2026-05-01 13:14 41.66167 12.40724 2526 ft 167 kts 286°
2026-05-01 13:15 41.66378 12.39272 2518 ft 154 kts 284°
2026-05-01 13:15 41.66621 12.37924 2510 ft 147 kts 291°
2026-05-01 13:15 41.66994 12.36678 2504 ft 142 kts 305°
2026-05-01 13:15 41.67574 12.35627 2513 ft 140 kts 313°
2026-05-01 13:16 41.68218 12.34649 2516 ft 140 kts 316°
2026-05-01 13:16 41.68872 12.33693 2513 ft 139 kts 316°
2026-05-01 13:16 41.69529 12.32744 2505 ft 140 kts 316°
2026-05-01 13:17 41.72188 12.31374 1857 ft 142 kts 342°
2026-05-01 13:17 41.73103 12.30971 1702 ft 137 kts 345°
2026-05-01 13:18 41.74925 12.30196 1334 ft 136 kts 345°
2026-05-01 13:18 41.75824 12.29819 1160 ft 135 kts 345°
2026-05-01 13:18 41.76714 12.29446 986 ft 134 kts 345°
2026-05-01 13:18 41.77604 12.29074 803 ft 134 kts 346°
2026-05-01 13:19 41.78496 12.28707 633 ft 135 kts 347°
2026-05-01 13:19 41.79389 12.28329 427 ft 135 kts 347°
2026-05-01 13:19 41.81196 12.27574 88 ft 137 kts 347°
2026-05-01 13:20 41.82041 12.27229 12 ft 100 kts 342°
2026-05-01 13:20 41.82417 12.27069 13 ft 23 kts 335°
2026-05-01 13:20 41.82539 12.26973 14 ft 18 kts 327°
2026-05-01 13:21 41.82690 12.26789 16 ft 12 kts 313°
2026-05-01 13:21 41.82734 12.26707 15 ft 10 kts 285°
2026-05-01 13:21 41.82723 12.26629 15 ft 8 kts 254°
2026-05-01 13:21 41.82701 12.26621 15 ft 2 kts 174°
2026-05-01 13:22 41.82658 12.26640 15 ft 10 kts 161°
2026-05-01 13:22 41.82581 12.26673 15 ft 13 kts 163°
2026-05-01 13:22 41.82489 12.26710 15 ft 15 kts 163°
2026-05-01 13:22 41.82383 12.26755 15 ft 17 kts 161°
2026-05-01 13:23 41.82262 12.26807 15 ft 19 kts 162°
2026-05-01 13:23 41.82128 12.26865 15 ft 21 kts 162°
2026-05-01 13:23 41.82007 12.26916 15 ft 18 kts 163°
2026-05-01 13:23 41.81880 12.26966 15 ft 20 kts 163°
2026-05-01 13:24 41.81737 12.27025 15 ft 22 kts 162°
2026-05-01 13:24 41.81587 12.27089 15 ft 24 kts 162°
2026-05-01 13:24 41.81422 12.27160 15 ft 26 kts 163°
2026-05-01 13:25 41.81096 12.27297 15 ft 23 kts 162°
2026-05-01 13:25 41.80949 12.27352 15 ft 21 kts 173°
2026-05-01 13:25 41.80800 12.27327 15 ft 23 kts 189°
2026-05-01 13:25 41.80662 12.27236 15 ft 23 kts 242°
2026-05-01 13:26 41.80603 12.27024 17 ft 25 kts 250°
2026-05-01 13:26 41.80540 12.26797 16 ft 27 kts 249°
2026-05-01 13:26 41.80479 12.26578 15 ft 25 kts 250°
2026-05-01 13:26 41.80423 12.26371 16 ft 22 kts 250°
2026-05-01 13:27 41.80367 12.26168 15 ft 24 kts 250°
2026-05-01 13:27 41.80325 12.26012 17 ft 8 kts 249°
2026-05-01 13:27 41.80273 12.25830 15 ft 13 kts 250°
2026-05-01 13:28 41.80202 12.25571 15 ft 17 kts 249°
2026-05-01 13:28 41.80157 12.25417 17 ft 15 kts 248°
2026-05-01 13:29 41.80027 12.25352 15 ft 12 kts 152°
2026-05-01 13:29 41.79920 12.25471 15 ft 9 kts 189°
2026-05-01 13:30 41.79780 12.25456 15 ft 3 kts 144°
2026-05-01 13:31 41.79760 12.25494 15 ft 2 kts 120°
2026-05-01 13:31 41.79757 12.25502 15 ft 0 kts 118°